Location: Ahausen
(50.4985°N, 8.2722°E)
Time: 19:24:12
(UTC+00:00)

Cosmos 2251 Rocket - Pass Details

Date: 18 September 2020
Orbit: 765 x 792 km, 74.0° (Epoch: 21 October)

Event Time Altitude Azimuth Distance (km) Brightness Sun altitude
Rises 20:05:15 0° 339° (NNW) 3,303 7.7 -23.5°
Reaches altitude 10° 20:07:54 10° 349° (N) 2,369 6.6 -23.8°
Maximum altitude 20:12:46 33° 53° (NE) 1,300 4.5 -24.5°
Enters shadow 20:12:50 33° 55° (NE) 1,300 4.5 -24.5°
